Погода на Провинции Бали

Индонезия     8°22′09″S   115°09′57″E
темп.,
°C
ветер,
м/с
пор.,
м/с
влажн.,
%
обл.,
%
осадки,
мм/ч
давл.,
гПа
погр.,
м
2 марта, вт
вт223:00+19св019239 0.0 101126
02:00+19з019370 0.1 101030
05:00+18з119022 0.0 100830
08:00+22сз118211 0.0 101099
11:00+27сз23588 0.1 10101130
14:00+24сз128225 3.5 1008655
17:00+23зсз128556 3.6 1007356
20:00+19з119228 4.6 101024
3 марта, ср
ср323:00+19сз11950 0.1 101227
02:00+19з119412 0.1 101032
05:00+18юз11913 0.0 100926
08:00+22з00829 0.0 101179
11:00+26зсз11710 0.9 1011845
14:00+25зсз028133 6.1 1008735
17:00+23юз128877 4.1 1008576
20:00+20ююв119684 8.4 101030
4 марта, чт
чт423:00+19ссз119369 2.5 101232
02:00+19зсз129851 2.6 101077
05:00+18ююз019198 0.0 101029
08:00+21ю018093 0.0 101172
11:00+25зюз126097 0.0 1011906
14:00+25зсз127698 1.6 1009863
17:00+22зюз1290100 4.9 1008388
20:00+19ююз1196100 7.8 101131
5 марта, пт
пт523:00+19зюз1194100 0.0 101138
02:00+18юз1193100 0.2 101031
05:00+19ююз1196100 1.7 101029
08:00+20ююз2397100 3.7 1011238
11:00+22ююз2386100 2.4 1012516
14:00+26ююз2363100 3.6 10091020
17:00+22ююз2386100 1.9 1008500
20:00+19ю1198100 2.1 101056
6 марта, сб
сб623:00+19юз0092100 0.0 101030
02:00+19зсз0188100 0.0 100928
05:00+18юз0091100 0.0 100928
08:00+21ссв0080100 0.0 1010102
11:00+26ссз1169100 0.5 1011901
14:00+24ссз1287100 6.5 1008520
17:00+22ссз1290100 4.2 1008411
20:00+19ссз119698 4.8 101031